[[{"header":{"parameterUnit":"m.s-1","parameterCategory":2,"la1":30.2991,"la2":30.254,"lo1":-89.0895,"lo2":-89.0444,"dy":0.0017,"dx":0.0017,"nx":28,"ny":28,"refTime":"2025-03-24T09:00:00:Z","depth":"0","parameterNumber":2,"parameterNumberName":"U-component_of_CURRENTS"},"data":[0,0,0,0,0,0,0,0,0,0,0,0,0,0,0,0,0,0,0,0,0,0,0,0,0,0,0,0,0,0,0,0,0,0,0,0,0,0,0,0,0,0,0,0,0,0,0,0,0,0,0,0,0,0,0,0,0,0,-0.2637,-0.2637,0,-0.2624,-0.2623,-0.2623,-0.2588,-0.2587,-0.2587,-0.2587,-0.2462,-0.2459,-0.2456,0,0,0,0,0,0,0,0,0,0,0,0,0,-0.2571,-0.2573,-0.2637,-0.2637,-0.2637,-0.2624,-0.2623,-0.2622,-0.2588,-0.2587,-0.2587,-0.2587,-0.2463,-0.246,-0.2456,0,0,0,0,0,0,0,0,0,0,0,0,0,-0.2578,-0.2573,-0.2637,-0.2623,-0.2622,-0.2624,-0.2623,-0.2622,-0.2588,-0.2587,-0.2587,-0.2587,-0.2464,-0.246,-0.2455,-0.2433,0,0,-0.2441,-0.2439,0,0,0,0,0,0,0,0,-0.2578,-0.258,-0.2624,-0.2624,-0.2623,-0.2612,-0.2555,-0.2556,-0.2588,-0.2594,-0.2587,-0.2586,-0.2506,-0.2498,-0.249,-0.2428,-0.2422,-0.2441,-0.2438,-0.2436,-0.2435,0,0,0,0,0,0,0,-0.2577,-0.258,-0.2626,-0.2625,-0.2624,-0.2597,-0.2597,-0.2555,-0.2546,-0.2594,-0.2593,-0.2601,-0.2504,-0.2494,-0.2486,-0.242,-0.2441,-0.2437,-0.2434,-0.2432,-0.2272,-0.2271,0,0,0,0,0,0,-0.2594,-0.258,-0.2626,-0.2626,-0.2605,-0.2599,-0.2599,-0.2611,-0.2549,-0.2541,-0.2601,-0.2599,-0.2502,-0.2492,-0.2482,-0.2439,-0.2436,-0.2432,-0.2429,-0.2273,-0.2272,-0.227,0,0,0,0,0,0,-0.2593,-0.2599,-0.2627,-0.2607,-0.2609,-0.2602,-0.2614,-0.2611,-0.2608,-0.2556,-0.2545,-0.2603,-0.2502,-0.2488,-0.2438,-0.2434,-0.2429,-0.2425,-0.2275,-0.2273,-0.2271,-0.236,0,0,0,0,0,0,-0.2591,-0.2598,-0.2604,-0.2608,-0.2611,-0.2636,-0.2615,-0.2611,-0.2616,-0.2614,-0.2554,-0.2542,-0.25,-0.2445,-0.2433,-0.2427,-0.2422,-0.2277,-0.2274,-0.2272,-0.2359,-0.2362,-0.2364,0,0,0,0,0,-0.2589,-0.2603,-0.2604,-0.261,-0.2622,-0.2637,-0.2635,-0.2624,-0.2617,-0.2619,-0.257,-0.2544,-0.2419,-0.2441,-0.2427,-0.242,-0.2278,-0.2275,-0.2272,-0.2358,-0.2361,-0.2363,0,0,0,0,0,0,-0.2568,-0.2602,-0.2603,-0.2623,-0.2634,-0.2633,-0.2634,-0.2633,-0.2599,-0.2588,-0.2536,-0.252,-0.2469,-0.2426,-0.2452,-0.2359,-0.234,-0.2334,-0.241,-0.2412,-0.2414,-0.2456,-0.2418,0,0,0,0,0,-0.2571,-0.2592,-0.2615,-0.2627,-0.2638,-0.2638,-0.2641,-0.2639,-0.2617,-0.2604,-0.2558,-0.2498,-0.2444,-0.2417,-0.2359,-0.232,-0.2325,-0.2298,-0.23,-0.2303,-0.2323,-0.2343,-0.2351,-0.2259,-0.2259,-0.2259,0,0,-0.2562,-0.2586,-0.2593,-0.2625,-0.2629,-0.2642,-0.2637,-0.2649,-0.2646,-0.2592,-0.2555,-0.2505,-0.2433,-0.2383,-0.2356,-0.235,-0.2326,-0.2299,-0.2302,-0.2321,-0.2341,-0.2351,-0.236,-0.2257,-0.2257,-0.2258,0,0,-0.2561,-0.2582,-0.26,-0.2619,-0.2644,-0.2645,-0.2656,-0.2658,-0.2644,-0.2612,-0.2565,-0.2529,-0.2435,-0.2401,-0.2367,-0.2346,-0.2335,-0.2305,-0.2358,-0.2378,-0.2387,-0.2396,-0.2412,-0.2421,-0.231,-0.231,-0.231,0,-0.2542,-0.258,-0.2604,-0.2631,-0.2646,-0.2652,-0.267,-0.266,-0.2636,-0.2633,-0.2602,-0.2509,-0.245,-0.242,-0.2401,-0.2358,-0.2364,-0.2365,-0.2388,-0.2397,-0.2404,-0.2418,-0.2428,-0.2314,-0.2313,-0.2313,-0.2313,0,-0.256,-0.259,-0.2604,-0.264,-0.2655,-0.2674,-0.2681,-0.2678,-0.2659,-0.2652,-0.2619,-0.2553,-0.2508,-0.2471,-0.2426,-0.2436,-0.2422,-0.2395,-0.2402,-0.2421,-0.2432,-0.244,-0.2319,-0.2318,-0.2317,-0.2316,0,0,-0.2508,-0.2599,-0.26,-0.2631,-0.2668,-0.2683,-0.2686,-0.2701,-0.2714,-0.2678,-0.2692,-0.2607,-0.2599,-0.2559,-0.251,-0.2521,-0.2567,-0.2483,-0.2482,-0.2535,-0.2615,-0.2433,-0.2424,-0.2553,-0.2555,-0.2556,-0.2603,0,-0.2507,-0.2569,-0.2609,-0.2648,-0.268,-0.2704,-0.2712,-0.2725,-0.2719,-0.2727,-0.2698,-0.2674,-0.2623,-0.2605,-0.2615,-0.2566,-0.2592,-0.2556,-0.2557,-0.2557,-0.2424,-0.2428,-0.2265,-0.2278,-0.2611,-0.2613,-0.2614,0,-0.2494,-0.2551,-0.2599,-0.2678,-0.2693,-0.271,-0.2747,-0.2757,-0.278,-0.2779,-0.2786,-0.2762,-0.276,-0.2714,-0.271,-0.269,-0.2668,-0.2644,-0.2645,-0.2454,-0.2389,-0.2308,-0.228,-0.2254,-0.2626,-0.2625,-0.2624,0,-0.2438,-0.2532,-0.2574,-0.26,-0.2685,-0.2705,-0.2735,-0.2768,-0.2778,-0.2818,-0.2822,-0.2842,-0.2815,-0.2825,-0.2737,-0.2745,-0.2725,-0.2731,-0.2564,-0.2552,-0.24,-0.2369,-0.2376,-0.2763,-0.2763,-0.2763,-0.2763,0,-0.241,-0.2437,-0.2559,-0.2579,-0.2633,-0.2693,-0.2729,-0.2763,-0.2806,-0.28,-0.2844,-0.2816,-0.2838,-0.2806,-0.2779,-0.2661,-0.276,-0.258,-0.255,-0.2418,-0.239,-0.2345,-0.2372,-0.2765,-0.2764,-0.2764,-0.2764,0,-0.2313,-0.2395,-0.2455,-0.2569,-0.2604,-0.2634,-0.2715,-0.2733,-0.2785,-0.2779,-0.2787,-0.2802,-0.2737,-0.2731,-0.2712,-0.266,-0.2536,-0.2545,-0.2373,-0.232,-0.2128,-0.2163,-0.2139,-0.2086,-0.241,-0.2406,-0.2402,0,-0.226,-0.2287,-0.2427,-0.2467,-0.2515,-0.2581,-0.2611,-0.2698,-0.2702,-0.2722,-0.2693,-0.2663,-0.2562,-0.2475,-0.2389,-0.2327,-0.2352,-0.2162,-0.2137,-0.2089,-0.2111,-0.2153,-0.2116,-0.1994,-0.1987,-0.1982,-0.1977,0,-0.2153,-0.2209,-0.227,-0.2375,-0.2428,-0.248,-0.2525,-0.252,-0.2575,-0.2556,-0.2473,-0.2407,-0.2295,-0.2113,-0.2026,-0.198,-0.2074,-0.2043,-0.2057,-0.1827,-0.1815,-0.1755,-0.2006,-0.1929,-0.1933,-0.1937,-0.194,-0.1942,-0.2051,-0.208,-0.2176,-0.2258,-0.2325,-0.2326,-0.2274,-0.2304,-0.226,-0.2157,-0.2201,-0.2034,-0.192,-0.174,-0.169,-0.155,-0.169,-0.1528,-0.1595,-0.1658,-0.1534,-0.165,-0.148,-0.1482,-0.1484,-0.1485,-0.1487,0,-0.1904,-0.1961,-0.2046,-0.2122,-0.213,-0.2206,-0.2167,-0.2057,-0.1908,-0.1885,-0.1774,-0.1586,-0.1402,-0.1349,-0.1209,-0.1147,-0.1177,-0.115,-0.1222,-0.1222,-0.1368,-0.1269,-0.0965,-0.0965,-0.0965,-0.0965,-0.0965,-0.0965,-0.1828,-0.1843,-0.1911,-0.1902,-0.1935,-0.1818,-0.1734,-0.1593,-0.1512,-0.13,-0.1197,-0.1157,-0.1122,-0.1129,-0.1012,-0.0962,-0.1007,-0.0933,-0.1042,-0.1185,-0.1228,-0.1269,-0.1183,-0.0865,-0.0865,-0.0821,-0.0821,-0.0821]},{"header":{"parameterUnit":"m.s-1","parameterCategory":2,"la1":30.2991,"la2":30.254,"lo1":-89.0895,"lo2":-89.0444,"dy":0.0017,"dx":0.0017,"nx":28,"ny":28,"refTime":"2025-03-24T09:00:00:Z","depth":"0","parameterNumber":3,"parameterNumberName":"V-component_of_CURRENTS"},"data":[0,0,0,0,0,0,0,0,0,0,0,0,0,0,0,0,0,0,0,0,0,0,0,0,0,0,0,0,0,0,0,0,0,0,0,0,0,0,0,0,0,0,0,0,0,0,0,0,0,0,0,0,0,0,0,0,0,0,-0.1472,-0.147,0,-0.1285,-0.1283,-0.128,-0.1203,-0.1203,-0.1204,-0.1205,-0.1037,-0.1032,-0.1027,0,0,0,0,0,0,0,0,0,0,0,0,0,-0.1573,-0.1573,-0.1472,-0.147,-0.1468,-0.1285,-0.1282,-0.128,-0.1202,-0.1203,-0.1204,-0.1205,-0.1038,-0.1032,-0.1026,0,0,0,0,0,0,0,0,0,0,0,0,0,-0.1469,-0.1573,-0.1472,-0.141,-0.1403,-0.1286,-0.1282,-0.1279,-0.1202,-0.1203,-0.1204,-0.1205,-0.104,-0.1033,-0.1025,-0.0955,0,0,-0.1002,-0.0998,0,0,0,0,0,0,0,0,-0.1475,-0.1465,-0.1421,-0.1414,-0.1406,-0.1272,-0.1257,-0.1173,-0.1202,-0.1274,-0.1205,-0.1206,-0.1119,-0.1105,-0.1061,-0.0947,-0.094,-0.1001,-0.0996,-0.0993,-0.0991,0,0,0,0,0,0,0,-0.1483,-0.1472,-0.1394,-0.1419,-0.141,-0.1328,-0.1315,-0.1239,-0.119,-0.1268,-0.1263,-0.1248,-0.1114,-0.1069,-0.1057,-0.0937,-0.1001,-0.0994,-0.0989,-0.0986,-0.075,-0.0749,0,0,0,0,0,0,-0.1522,-0.1479,-0.14,-0.1389,-0.1449,-0.1326,-0.1312,-0.1311,-0.119,-0.1174,-0.1247,-0.1245,-0.1081,-0.1066,-0.1051,-0.0971,-0.0993,-0.0986,-0.0981,-0.0752,-0.075,-0.0748,0,0,0,0,0,0,-0.1526,-0.1518,-0.1407,-0.1432,-0.1413,-0.1325,-0.1323,-0.1306,-0.1263,-0.1175,-0.1158,-0.1223,-0.1082,-0.1062,-0.0981,-0.0964,-0.0982,-0.0975,-0.0754,-0.0751,-0.0749,-0.0804,0,0,0,0,0,0,-0.1529,-0.152,-0.1526,-0.1435,-0.1413,-0.1344,-0.1321,-0.1302,-0.1254,-0.125,-0.1148,-0.1133,-0.1081,-0.0993,-0.0974,-0.0953,-0.0969,-0.0756,-0.0753,-0.075,-0.0805,-0.0804,-0.0804,0,0,0,0,0,-0.1534,-0.1537,-0.1528,-0.1518,-0.1427,-0.1344,-0.1324,-0.1261,-0.1253,-0.1227,-0.1161,-0.1136,-0.096,-0.0985,-0.0963,-0.094,-0.0757,-0.0754,-0.075,-0.0805,-0.0804,-0.0804,0,0,0,0,0,0,-0.158,-0.1527,-0.1515,-0.1503,-0.1435,-0.1333,-0.1301,-0.1263,-0.1186,-0.1185,-0.111,-0.1089,-0.1013,-0.0962,-0.0992,-0.0861,-0.0856,-0.0847,-0.0905,-0.0904,-0.0903,-0.0936,-0.0963,0,0,0,0,0,-0.1597,-0.159,-0.1518,-0.1506,-0.1477,-0.1391,-0.1349,-0.1307,-0.1231,-0.1198,-0.1125,-0.1048,-0.0975,-0.0934,-0.0859,-0.0783,-0.0761,-0.0752,-0.0752,-0.0752,-0.0761,-0.074,-0.074,-0.0736,-0.0736,-0.0736,0,0,-0.1616,-0.1582,-0.158,-0.1515,-0.1457,-0.1406,-0.1367,-0.1306,-0.1263,-0.1191,-0.1108,-0.1042,-0.0954,-0.0873,-0.0834,-0.0832,-0.0733,-0.0748,-0.0749,-0.0758,-0.0736,-0.0737,-0.0738,-0.0734,-0.0734,-0.0735,0,0,-0.1636,-0.1614,-0.1611,-0.1553,-0.1477,-0.1416,-0.1406,-0.1303,-0.1261,-0.1175,-0.1117,-0.1046,-0.0922,-0.0859,-0.0814,-0.0763,-0.0735,-0.0733,-0.0754,-0.0733,-0.0734,-0.0735,-0.0686,-0.0682,-0.0731,-0.0731,-0.0731,0,-0.1658,-0.1643,-0.1592,-0.1556,-0.1509,-0.1429,-0.1394,-0.1329,-0.1213,-0.1182,-0.1161,-0.0991,-0.0918,-0.0832,-0.0811,-0.0765,-0.0744,-0.077,-0.0738,-0.0738,-0.0739,-0.0687,-0.0683,-0.0734,-0.0733,-0.0733,-0.0733,0,-0.1667,-0.1643,-0.1626,-0.1565,-0.1507,-0.1457,-0.1371,-0.1317,-0.1261,-0.1198,-0.1106,-0.1003,-0.0914,-0.0869,-0.082,-0.077,-0.075,-0.0748,-0.0754,-0.0744,-0.0688,-0.0683,-0.0737,-0.0736,-0.0735,-0.0735,0,0,-0.1729,-0.1654,-0.1645,-0.1617,-0.1506,-0.1459,-0.1395,-0.1313,-0.1287,-0.1179,-0.1137,-0.1001,-0.0962,-0.0907,-0.0835,-0.0802,-0.0768,-0.0779,-0.0777,-0.0755,-0.0706,-0.0581,-0.0562,-0.0775,-0.0775,-0.0775,-0.0659,0,-0.1743,-0.1709,-0.1653,-0.1594,-0.1559,-0.1468,-0.142,-0.1341,-0.1268,-0.1206,-0.1111,-0.1039,-0.0971,-0.0936,-0.089,-0.0799,-0.0759,-0.0798,-0.0696,-0.0692,-0.0606,-0.0554,-0.0504,-0.0388,-0.0654,-0.0653,-0.0652,0,-0.1758,-0.173,-0.1702,-0.162,-0.1598,-0.1554,-0.147,-0.1415,-0.1321,-0.1273,-0.1193,-0.1117,-0.1018,-0.0987,-0.0842,-0.0875,-0.0797,-0.0731,-0.0726,-0.0592,-0.0557,-0.0442,-0.0367,-0.0253,-0.0643,-0.0644,-0.0644,0,-0.1826,-0.1751,-0.174,-0.1705,-0.1613,-0.1588,-0.1534,-0.1444,-0.1414,-0.1323,-0.129,-0.1174,-0.1101,-0.1012,-0.0826,-0.0858,-0.0669,-0.0703,-0.0512,-0.0502,-0.0427,-0.0409,-0.0254,-0.0625,-0.0626,-0.0626,-0.0626,0,-0.1852,-0.1828,-0.1777,-0.1764,-0.1742,-0.1655,-0.163,-0.1565,-0.15,-0.1442,-0.1339,-0.1251,-0.111,-0.0961,-0.0843,-0.0617,-0.0677,-0.0498,-0.0461,-0.0436,-0.0422,-0.0293,-0.0267,-0.0622,-0.0623,-0.0623,-0.0624,0,-0.1908,-0.1881,-0.186,-0.1798,-0.1776,-0.1763,-0.1693,-0.1681,-0.1605,-0.1527,-0.1502,-0.1318,-0.1101,-0.0919,-0.0725,-0.0607,-0.0339,-0.0344,-0.0294,-0.0252,-0.0002,0.0019,0.0217,0.0293,-0.0157,-0.0154,-0.015,0,-0.1924,-0.1934,-0.1906,-0.1904,-0.1872,-0.1843,-0.1828,-0.1751,-0.1715,-0.1528,-0.1486,-0.1262,-0.1046,-0.0691,-0.0453,-0.0208,-0.0148,-0.0028,-0.0081,0.005,0.0097,0.01,0.0147,0.0001,0.0005,0.0008,0.0011,0,-0.1945,-0.1961,-0.1954,-0.1972,-0.1961,-0.1936,-0.1886,-0.1868,-0.174,-0.1637,-0.1403,-0.122,-0.0834,-0.0491,-0.0161,-0.0025,0.0068,0.0052,0.0155,0.0226,0.0267,0.0345,-0.0097,0.0042,0.0038,0.0036,0.0035,0.0033,-0.1952,-0.1975,-0.1996,-0.2005,-0.2012,-0.198,-0.1918,-0.1849,-0.1742,-0.1487,-0.1321,-0.0928,-0.0533,-0.0049,0.0103,0.0425,0.034,0.0482,0.0495,0.0485,0.0571,0.0232,0.0432,0.0431,0.0431,0.043,0.043,0,-0.1925,-0.1971,-0.2009,-0.2003,-0.2017,-0.2002,-0.1919,-0.1815,-0.1636,-0.1349,-0.108,-0.0432,-0.0052,0.0295,0.0692,0.0845,0.0827,0.0908,0.0885,0.0908,0.0587,0.0607,0.0894,0.0894,0.0894,0.0893,0.0893,0.0893,-0.1907,-0.1948,-0.199,-0.1998,-0.1991,-0.1904,-0.1829,-0.1666,-0.143,-0.0923,-0.0451,-0.009,0.0373,0.0846,0.1171,0.1193,0.1278,0.1283,0.1329,0.1064,0.1022,0.0983,0.101,0.1377,0.1377,0.1634,0.1637,0.1639]}],[{"header":{"parameterUnit":"m.s-1","parameterCategory":2,"la1":30.2991,"la2":30.254,"lo1":-89.0895,"lo2":-89.0444,"dy":0.0017,"dx":0.0017,"nx":28,"ny":28,"refTime":"2025-03-24T09:00:00:Z","depth":"2","parameterNumber":2,"parameterNumberName":"U-component_of_CURRENTS"},"data":[0,0,0,0,0,0,0,0,0,0,0,0,0,0,0,0,0,0,0,0,0,0,0,0,0,0,0,0,0,0,0,0,0,0,0,0,0,0,0,0,0,0,0,0,0,0,0,0,0,0,0,0,0,0,0,0,0,0,-0.1852,-0.1853,0,-0.1873,-0.1873,-0.1872,-0.1833,-0.1833,-0.1833,-0.1833,-0.1945,-0.1948,-0.1951,0,0,0,0,0,0,0,0,0,0,0,0,0,-0.1659,-0.1663,-0.1852,-0.1853,-0.1855,-0.1874,-0.1873,-0.1872,-0.1833,-0.1833,-0.1833,-0.1833,-0.1944,-0.1947,-0.1951,0,0,0,0,0,0,0,0,0,0,0,0,0,-0.1707,-0.1664,-0.1852,-0.1847,-0.1847,-0.1874,-0.1873,-0.1872,-0.1833,-0.1833,-0.1833,-0.1833,-0.1942,-0.1947,-0.1952,-0.1985,0,0,-0.1966,-0.1968,0,0,0,0,0,0,0,0,-0.1704,-0.1712,-0.1846,-0.1847,-0.1848,-0.1861,-0.1846,-0.1918,-0.1833,-0.1826,-0.1833,-0.1832,-0.1934,-0.1939,-0.1924,-0.1991,-0.1995,-0.1966,-0.1969,-0.1971,-0.1972,0,0,0,0,0,0,0,-0.1701,-0.171,-0.1848,-0.1848,-0.1849,-0.1804,-0.181,-0.1858,-0.1873,-0.1826,-0.1827,-0.1849,-0.1933,-0.192,-0.1927,-0.1997,-0.1966,-0.197,-0.1973,-0.1975,-0.2191,-0.2194,0,0,0,0,0,0,-0.1731,-0.1709,-0.1847,-0.185,-0.1788,-0.1809,-0.1815,-0.1847,-0.187,-0.1876,-0.1849,-0.1847,-0.1912,-0.1922,-0.1931,-0.2024,-0.1971,-0.1976,-0.1978,-0.2188,-0.2192,-0.2195,0,0,0,0,0,0,-0.1726,-0.1743,-0.1847,-0.1788,-0.18,-0.1815,-0.185,-0.1848,-0.1863,-0.1889,-0.1894,-0.187,-0.1912,-0.1925,-0.2004,-0.2026,-0.1978,-0.1982,-0.2185,-0.2189,-0.2193,-0.2177,0,0,0,0,0,0,-0.1721,-0.1741,-0.1766,-0.1791,-0.1805,-0.1891,-0.1851,-0.1849,-0.1882,-0.1879,-0.1909,-0.1917,-0.1913,-0.1997,-0.2009,-0.2032,-0.1986,-0.2181,-0.2187,-0.2192,-0.2174,-0.2181,-0.2186,0,0,0,0,0,-0.1714,-0.1761,-0.1767,-0.1784,-0.1842,-0.1895,-0.1896,-0.1895,-0.1884,-0.1903,-0.1925,-0.1917,-0.204,-0.2003,-0.2016,-0.2041,-0.2178,-0.2185,-0.2191,-0.2171,-0.2179,-0.2186,0,0,0,0,0,0,-0.1703,-0.1764,-0.177,-0.1837,-0.1877,-0.1893,-0.1921,-0.1919,-0.1944,-0.1952,-0.1954,-0.1966,-0.2057,-0.2064,-0.2023,-0.2127,-0.2109,-0.2119,-0.209,-0.2098,-0.2103,-0.2057,-0.1989,0,0,0,0,0,-0.1714,-0.1758,-0.1811,-0.1866,-0.1895,-0.191,-0.193,-0.1937,-0.197,-0.1978,-0.2001,-0.2037,-0.2089,-0.2104,-0.2164,-0.2208,-0.2173,-0.2239,-0.2244,-0.2249,-0.2225,-0.2164,-0.2159,-0.2216,-0.2216,-0.2216,0,0,-0.1728,-0.1769,-0.1795,-0.1866,-0.1894,-0.1943,-0.192,-0.1976,-0.1985,-0.1994,-0.2029,-0.2085,-0.2121,-0.2177,-0.2214,-0.2178,-0.2229,-0.2257,-0.226,-0.2233,-0.2169,-0.2162,-0.2156,-0.2221,-0.222,-0.2219,0,0,-0.1765,-0.182,-0.1856,-0.1898,-0.1962,-0.1987,-0.2016,-0.2056,-0.2039,-0.2095,-0.2108,-0.2155,-0.2238,-0.2231,-0.2245,-0.2323,-0.229,-0.2377,-0.2327,-0.2268,-0.226,-0.2253,-0.2238,-0.2229,-0.2342,-0.2342,-0.2342,0,-0.1782,-0.1826,-0.1877,-0.1924,-0.1944,-0.2016,-0.2042,-0.2063,-0.2114,-0.2096,-0.2119,-0.2198,-0.2244,-0.225,-0.2286,-0.2327,-0.2309,-0.2284,-0.2266,-0.2258,-0.225,-0.2237,-0.2227,-0.2342,-0.2342,-0.2342,-0.2342,0,-0.1827,-0.1869,-0.1909,-0.1981,-0.2014,-0.2068,-0.2106,-0.2137,-0.2151,-0.2159,-0.2187,-0.222,-0.2242,-0.2286,-0.2312,-0.2296,-0.2311,-0.2301,-0.2223,-0.2241,-0.223,-0.2219,-0.2342,-0.2342,-0.2342,-0.2342,0,0,-0.1848,-0.1917,-0.1933,-0.1928,-0.2033,-0.2056,-0.2099,-0.212,-0.2123,-0.2167,-0.2122,-0.221,-0.222,-0.2237,-0.226,-0.2211,-0.2177,-0.2235,-0.2232,-0.2179,-0.2079,-0.2031,-0.2016,-0.2154,-0.2152,-0.215,-0.2103,0,-0.186,-0.1909,-0.1939,-0.1981,-0.2001,-0.2048,-0.2068,-0.2101,-0.2131,-0.2134,-0.2124,-0.2155,-0.22,-0.2209,-0.2168,-0.22,-0.2146,-0.2193,-0.2106,-0.2104,-0.2021,-0.1999,-0.1848,-0.1787,-0.2093,-0.2091,-0.209,0,-0.1878,-0.1896,-0.1921,-0.1914,-0.1926,-0.1973,-0.1981,-0.2001,-0.2044,-0.2049,-0.2056,-0.2094,-0.2076,-0.2094,-0.2056,-0.2089,-0.2082,-0.2078,-0.2075,-0.2014,-0.2034,-0.1817,-0.1756,-0.2073,-0.2074,-0.2075,-0.2076,0,-0.1834,-0.1864,-0.186,-0.1879,-0.1926,-0.1911,-0.1933,-0.1985,-0.1972,-0.2002,-0.2024,-0.2006,-0.2013,-0.1968,-0.2017,-0.2026,-0.1966,-0.1962,-0.1897,-0.1896,-0.1738,-0.1726,-0.1882,-0.1882,-0.1883,-0.1883,-0.1883,0,-0.1833,-0.185,-0.1839,-0.1863,-0.1816,-0.1856,-0.1843,-0.1868,-0.1901,-0.1916,-0.1975,-0.1974,-0.1984,-0.1982,-0.1976,-0.1919,-0.1923,-0.187,-0.1857,-0.174,-0.1729,-0.1951,-0.196,-0.1881,-0.1881,-0.1882,-0.1882,0,-0.186,-0.1867,-0.1837,-0.1824,-0.1814,-0.1781,-0.1784,-0.1783,-0.1848,-0.1861,-0.187,-0.1944,-0.1941,-0.195,-0.191,-0.1879,-0.182,-0.1797,-0.1692,-0.1665,-0.18,-0.1809,-0.1674,-0.1671,-0.1669,-0.1667,-0.1666,0,-0.192,-0.1904,-0.1802,-0.1738,-0.1747,-0.1711,-0.1699,-0.1741,-0.1755,-0.1844,-0.1841,-0.188,-0.1867,-0.1806,-0.1752,-0.1675,-0.1763,-0.1517,-0.1476,-0.1765,-0.1767,-0.178,-0.1792,-0.129,-0.1285,-0.1282,-0.1279,0,-0.1982,-0.1914,-0.1857,-0.1712,-0.1652,-0.1578,-0.1577,-0.1589,-0.1665,-0.1697,-0.1735,-0.1728,-0.1704,-0.1558,-0.1504,-0.1447,-0.151,-0.1438,-0.1719,-0.1375,-0.14,-0.1405,-0.1429,-0.1246,-0.1249,-0.1252,-0.1253,-0.1255,-0.1987,-0.1912,-0.1772,-0.1622,-0.1529,-0.1436,-0.139,-0.1434,-0.1433,-0.1467,-0.1552,-0.1486,-0.1486,-0.1275,-0.1218,-0.1179,-0.1276,-0.1214,-0.1226,-0.1242,-0.1213,-0.1233,-0.1046,-0.1048,-0.105,-0.1051,-0.1053,0,-0.1897,-0.1804,-0.1688,-0.1465,-0.1314,-0.1312,-0.1279,-0.124,-0.1228,-0.1261,-0.1253,-0.1103,-0.0995,-0.1001,-0.087,-0.0853,-0.0852,-0.0829,-0.0822,-0.0854,-0.0882,-0.0838,-0.057,-0.0568,-0.0567,-0.0566,0,0,-0.1822,-0.1659,-0.1571,-0.127,-0.115,-0.0987,-0.0949,-0.0938,-0.0929,-0.0876,-0.0828,-0.0883,-0.0913,-0.0724,-0.0699,-0.0603,-0.0718,-0.0568,-0.0949,-0.0967,-0.0994,-0.1092,-0.1056,0,0,0,0,0]},{"header":{"parameterUnit":"m.s-1","parameterCategory":2,"la1":30.2991,"la2":30.254,"lo1":-89.0895,"lo2":-89.0444,"dy":0.0017,"dx":0.0017,"nx":28,"ny":28,"refTime":"2025-03-24T09:00:00:Z","depth":"2","parameterNumber":3,"parameterNumberName":"V-component_of_CURRENTS"},"data":[0,0,0,0,0,0,0,0,0,0,0,0,0,0,0,0,0,0,0,0,0,0,0,0,0,0,0,0,0,0,0,0,0,0,0,0,0,0,0,0,0,0,0,0,0,0,0,0,0,0,0,0,0,0,0,0,0,0,0.003,0.003,0,0.0064,0.0065,0.0065,0.0105,0.0106,0.0107,0.0107,0.0301,0.0305,0.031,0,0,0,0,0,0,0,0,0,0,0,0,0,0.0037,0.0036,0.003,0.003,0.0031,0.0064,0.0065,0.0065,0.0105,0.0106,0.0107,0.0108,0.0299,0.0305,0.031,0,0,0,0,0,0,0,0,0,0,0,0,0,0.0047,0.0036,0.003,0.0057,0.006,0.0064,0.0065,0.0065,0.0104,0.0106,0.0107,0.0108,0.0298,0.0304,0.0311,0.0326,0,0,0.0331,0.0334,0,0,0,0,0,0,0,0,0.0046,0.0046,0.0052,0.0055,0.0058,0.0084,0.0138,0.0161,0.0104,0.0085,0.0107,0.0109,0.0244,0.0255,0.0253,0.0335,0.0344,0.0331,0.0335,0.0338,0.034,0,0,0,0,0,0,0,0.0045,0.0045,0.0041,0.0053,0.0057,0.0081,0.0083,0.0142,0.0158,0.0087,0.009,0.0098,0.0246,0.0246,0.0258,0.0346,0.0331,0.0337,0.0341,0.0344,0.0564,0.0566,0,0,0,0,0,0,0.0042,0.0044,0.004,0.0042,0.0058,0.008,0.0082,0.0072,0.0154,0.0167,0.0097,0.0099,0.0234,0.025,0.0265,0.0346,0.0338,0.0344,0.0348,0.0562,0.0564,0.0566,0,0,0,0,0,0,0.0042,0.0041,0.0039,0.0047,0.0049,0.0078,0.0067,0.0072,0.0087,0.016,0.0176,0.0108,0.0236,0.0256,0.033,0.0353,0.0347,0.0353,0.056,0.0563,0.0565,0.0473,0,0,0,0,0,0,0.0041,0.004,0.003,0.0046,0.0048,0.0046,0.0066,0.0072,0.009,0.0094,0.0175,0.0193,0.0238,0.0319,0.0336,0.0362,0.0358,0.0557,0.0561,0.0564,0.0474,0.0472,0.0471,0,0,0,0,0,0.0041,0.0019,0.0029,0.0029,0.0034,0.0046,0.0049,0.0073,0.0089,0.0091,0.0151,0.0191,0.0356,0.0325,0.0345,0.0373,0.0555,0.056,0.0564,0.0474,0.0473,0.0471,0,0,0,0,0,0,0.0018,0.0022,0.0033,0.0014,0.0033,0.0054,0.0053,0.0075,0.0117,0.013,0.0199,0.0221,0.0313,0.0354,0.0319,0.0454,0.047,0.0478,0.0395,0.0394,0.0393,0.0332,0.0364,0,0,0,0,0,0.0008,-0.0008,0.0012,-0.0001,0.0005,0.0031,0.0039,0.0059,0.0099,0.0117,0.0175,0.0254,0.0342,0.0373,0.0459,0.0504,0.0518,0.0545,0.0544,0.0542,0.051,0.0538,0.0534,0.058,0.058,0.058,0,0,-0.0002,-0.0003,-0.001,-0.0006,0.0006,0.0014,0.0038,0.005,0.0059,0.0136,0.0171,0.0263,0.0363,0.0432,0.0474,0.0463,0.0543,0.0547,0.0544,0.0513,0.0542,0.0536,0.0532,0.0583,0.0583,0.0582,0,0,-0.0035,-0.0033,-0.0056,-0.0041,-0.0021,0.0001,0.0008,0.0038,0.0049,0.0095,0.0175,0.0247,0.0367,0.0419,0.0469,0.0508,0.0556,0.0577,0.049,0.0518,0.0513,0.0508,0.0528,0.0526,0.0549,0.0549,0.0549,0,-0.0046,-0.0075,-0.0057,-0.0066,-0.0059,-0.0004,-0.0013,0.0009,0.0063,0.0077,0.0104,0.027,0.0347,0.0422,0.044,0.0498,0.0528,0.0477,0.0509,0.0505,0.0501,0.0523,0.0521,0.0545,0.0546,0.0546,0.0546,0,-0.0091,-0.0104,-0.0114,-0.0107,-0.0094,-0.0091,-0.0053,-0.0031,0.0005,0.004,0.0119,0.0204,0.0294,0.0349,0.0402,0.0442,0.0478,0.0518,0.0491,0.0489,0.0515,0.0515,0.0539,0.0541,0.0542,0.0543,0,0,-0.0138,-0.0149,-0.0149,-0.0155,-0.0119,-0.0112,-0.0095,-0.0067,-0.005,0.0007,0.0023,0.0146,0.0196,0.0254,0.0336,0.0341,0.0349,0.0407,0.041,0.0387,0.0414,0.0429,0.0431,0.04,0.04,0.0399,0.0442,0,-0.0178,-0.022,-0.0207,-0.0216,-0.0228,-0.0178,-0.0167,-0.0124,-0.0077,-0.0038,0.0029,0.0105,0.0162,0.021,0.0225,0.0349,0.0345,0.0333,0.0452,0.0455,0.0436,0.043,0.0421,0.0457,0.0442,0.0442,0.0442,0,-0.0226,-0.0248,-0.0289,-0.0284,-0.0284,-0.0269,-0.0238,-0.0221,-0.0148,-0.0114,-0.0054,0.0031,0.0083,0.0121,0.023,0.0231,0.0299,0.0358,0.0363,0.0398,0.0469,0.0461,0.0458,0.0442,0.0442,0.0442,0.0442,0,-0.0281,-0.0299,-0.034,-0.0336,-0.0318,-0.0322,-0.0299,-0.0239,-0.0228,-0.0158,-0.0131,-0.0042,0.0001,0.009,0.0213,0.0236,0.0315,0.037,0.0431,0.0433,0.0455,0.046,0.0401,0.0401,0.0401,0.04,0.04,0,-0.0336,-0.0357,-0.0366,-0.0383,-0.0403,-0.0373,-0.0373,-0.0336,-0.0287,-0.0272,-0.0173,-0.0149,-0.0006,0.0072,0.0183,0.0299,0.0292,0.0397,0.0438,0.0428,0.043,0.0443,0.0447,0.0402,0.0402,0.0401,0.0401,0,-0.0384,-0.0399,-0.0432,-0.0436,-0.0434,-0.0443,-0.042,-0.0413,-0.0364,-0.0349,-0.0332,-0.0224,-0.0113,0.0019,0.0167,0.0255,0.0371,0.0404,0.0376,0.0411,0.0479,0.0479,0.0489,0.049,0.0491,0.0491,0.0491,0,-0.0411,-0.0442,-0.0469,-0.0487,-0.0488,-0.0494,-0.0496,-0.0455,-0.045,-0.04,-0.0399,-0.0294,-0.0199,0.002,0.0188,0.0366,0.0373,0.0441,0.0472,0.0445,0.0484,0.0483,0.0482,0.0475,0.0476,0.0476,0.0476,0,-0.0452,-0.0467,-0.0494,-0.053,-0.0547,-0.0565,-0.0567,-0.0582,-0.0549,-0.0514,-0.0459,-0.0376,-0.0173,0.0039,0.025,0.0352,0.0422,0.0452,0.0431,0.0452,0.0435,0.0473,0.0472,0.0478,0.0478,0.0478,0.0478,0.0478,-0.0467,-0.0493,-0.0533,-0.0556,-0.0586,-0.0626,-0.0646,-0.0646,-0.0634,-0.0566,-0.0492,-0.0322,-0.0152,0.0196,0.032,0.0443,0.0458,0.0511,0.0509,0.0507,0.0495,0.048,0.0529,0.0529,0.0529,0.0529,0.0529,0,-0.0485,-0.0518,-0.0548,-0.059,-0.0626,-0.0635,-0.0679,-0.0689,-0.0683,-0.0547,-0.0431,-0.0215,0.0031,0.0205,0.0407,0.0518,0.0509,0.0532,0.0508,0.0506,0.0504,0.0491,0.0525,0.0525,0.0525,0.0525,0,0,-0.0499,-0.0537,-0.0545,-0.0601,-0.0637,-0.0697,-0.073,-0.0731,-0.065,-0.0522,-0.0346,-0.0101,0.0086,0.0232,0.0358,0.0452,0.0449,0.0455,0.0451,0.0406,0.0403,0.0487,0.0464,0,0,0,0,0]}],[{"header":{"parameterUnit":"m.s-1","parameterCategory":2,"la1":30.2991,"la2":30.254,"lo1":-89.0895,"lo2":-89.0444,"dy":0.0017,"dx":0.0017,"nx":28,"ny":28,"refTime":"2025-03-24T09:00:00:Z","depth":"4","parameterNumber":2,"parameterNumberName":"U-component_of_CURRENTS"},"data":[0,0,0,0,0,0,0,0,0,0,0,0,0,0,0,0,0,0,0,0,0,0,0,0,0,0,0,0,0,0,0,0,0,0,0,0,0,0,0,0,0,0,0,0,0,0,0,0,0,0,0,0,0,0,0,0,0,0,-0.1025,-0.1026,0,-0.1085,-0.1086,-0.1087,-0.1119,-0.1119,-0.1119,-0.1119,-0.1149,-0.115,-0.1151,0,0,0,0,0,0,0,0,0,0,0,0,0,-0.0983,-0.0983,-0.1025,-0.1026,-0.1026,-0.1085,-0.1086,-0.1087,-0.112,-0.1119,-0.1119,-0.1119,-0.1149,-0.115,-0.1151,0,0,0,0,0,0,0,0,0,0,0,0,0,-0.102,-0.0984,-0.1025,-0.1047,-0.105,-0.1085,-0.1086,-0.1087,-0.112,-0.1119,-0.1119,-0.1119,-0.1149,-0.115,-0.1151,-0.1166,0,0,-0.1156,-0.1156,0,0,0,0,0,0,0,0,-0.1018,-0.1022,-0.1044,-0.1046,-0.1048,-0.1092,-0.1082,-0.1111,-0.112,-0.1096,-0.1119,-0.1119,-0.1126,-0.1129,-0.1145,-0.1167,-0.1168,-0.1156,-0.1157,-0.1157,-0.1158,0,0,0,0,0,0,0,-0.1015,-0.102,-0.1052,-0.1044,-0.1047,-0.1069,-0.1074,-0.1088,-0.1113,-0.1098,-0.11,-0.1102,-0.1127,-0.1144,-0.1146,-0.1169,-0.1156,-0.1157,-0.1158,-0.1159,-0.1251,-0.1252,0,0,0,0,0,0,-0.1,-0.1017,-0.105,-0.1053,-0.1029,-0.107,-0.1075,-0.1081,-0.1114,-0.1118,-0.1102,-0.1103,-0.1142,-0.1144,-0.1147,-0.12,-0.1157,-0.1159,-0.116,-0.1249,-0.1251,-0.1253,0,0,0,0,0,0,-0.0999,-0.1003,-0.1047,-0.1034,-0.1041,-0.107,-0.1076,-0.1082,-0.1113,-0.1117,-0.1121,-0.1128,-0.1141,-0.1145,-0.1179,-0.12,-0.1159,-0.1161,-0.1247,-0.125,-0.1252,-0.1284,0,0,0,0,0,0,-0.0998,-0.1002,-0.1009,-0.1033,-0.1041,-0.1075,-0.1076,-0.1083,-0.1112,-0.1115,-0.114,-0.1142,-0.1142,-0.1177,-0.1181,-0.1201,-0.1162,-0.1245,-0.1249,-0.1251,-0.1281,-0.1287,-0.1292,0,0,0,0,0,-0.0996,-0.1002,-0.1009,-0.1013,-0.1047,-0.1075,-0.1082,-0.1104,-0.1114,-0.1131,-0.1154,-0.1142,-0.1198,-0.118,-0.1183,-0.1205,-0.1244,-0.1248,-0.1251,-0.1278,-0.1286,-0.1292,0,0,0,0,0,0,-0.0986,-0.1006,-0.1015,-0.1026,-0.1052,-0.108,-0.1096,-0.1114,-0.1149,-0.1153,-0.1162,-0.1166,-0.1201,-0.1205,-0.1184,-0.1243,-0.1219,-0.1224,-0.1239,-0.1246,-0.1252,-0.1246,-0.1163,0,0,0,0,0,-0.0986,-0.0997,-0.1021,-0.1032,-0.1045,-0.1076,-0.1093,-0.111,-0.1137,-0.1153,-0.1175,-0.1198,-0.1218,-0.1233,-0.1249,-0.1283,-0.1276,-0.1301,-0.1307,-0.1312,-0.1311,-0.1324,-0.133,-0.1265,-0.1265,-0.1265,0,0,-0.0981,-0.0996,-0.1001,-0.1031,-0.1053,-0.1078,-0.1087,-0.1116,-0.1146,-0.115,-0.1202,-0.1217,-0.1232,-0.1269,-0.1285,-0.1275,-0.1329,-0.1316,-0.132,-0.1317,-0.1328,-0.1334,-0.1339,-0.1267,-0.1267,-0.1266,0,0,-0.0982,-0.0995,-0.1009,-0.1032,-0.1066,-0.1087,-0.1099,-0.1141,-0.1169,-0.1216,-0.1226,-0.1257,-0.1296,-0.1312,-0.1323,-0.1373,-0.1356,-0.1383,-0.141,-0.1422,-0.1427,-0.1431,-0.1431,-0.1435,-0.1389,-0.1389,-0.1389,0,-0.0976,-0.1,-0.1018,-0.1042,-0.1067,-0.1093,-0.1124,-0.1153,-0.1204,-0.1233,-0.1235,-0.1303,-0.1315,-0.1357,-0.1377,-0.1384,-0.1385,-0.1378,-0.1427,-0.1431,-0.1435,-0.1434,-0.1438,-0.1391,-0.1391,-0.1391,-0.139,0,-0.0984,-0.1014,-0.1025,-0.1065,-0.1096,-0.1124,-0.1165,-0.1201,-0.1238,-0.1268,-0.1325,-0.1348,-0.1387,-0.1399,-0.1404,-0.1445,-0.1435,-0.1428,-0.1404,-0.1443,-0.144,-0.1444,-0.1394,-0.1393,-0.1392,-0.1392,0,0,-0.0939,-0.1018,-0.1022,-0.1057,-0.1115,-0.1139,-0.1193,-0.125,-0.1286,-0.1331,-0.1384,-0.1423,-0.1437,-0.1452,-0.1464,-0.1478,-0.1506,-0.147,-0.147,-0.1459,-0.1529,-0.1414,-0.1407,-0.1508,-0.1509,-0.151,-0.1516,0,-0.0944,-0.0994,-0.1042,-0.1099,-0.1129,-0.1185,-0.1236,-0.1288,-0.1334,-0.1387,-0.1416,-0.1463,-0.1457,-0.1482,-0.1497,-0.1508,-0.1517,-0.1505,-0.1501,-0.1501,-0.1385,-0.1407,-0.1513,-0.1518,-0.1519,-0.1519,-0.152,0,-0.0928,-0.0972,-0.103,-0.1129,-0.115,-0.1191,-0.1275,-0.133,-0.14,-0.1438,-0.1481,-0.1505,-0.1545,-0.1529,-0.1554,-0.1549,-0.1543,-0.154,-0.154,-0.1422,-0.1392,-0.1472,-0.1525,-0.1525,-0.1525,-0.1524,-0.1524,0,-0.0869,-0.0963,-0.1015,-0.1042,-0.1148,-0.1196,-0.1259,-0.1339,-0.1396,-0.1469,-0.1504,-0.1549,-0.1577,-0.1581,-0.1578,-0.1575,-0.1589,-0.1582,-0.147,-0.1462,-0.1549,-0.1544,-0.1591,-0.1591,-0.1591,-0.1591,-0.1591,0,-0.0839,-0.0875,-0.0992,-0.1011,-0.1083,-0.1173,-0.1256,-0.1315,-0.1412,-0.1466,-0.1525,-0.155,-0.1593,-0.1605,-0.1593,-0.1533,-0.16,-0.147,-0.1454,-0.1564,-0.1561,-0.1551,-0.1546,-0.1591,-0.1591,-0.1591,-0.1591,0,-0.0743,-0.0824,-0.0885,-0.1009,-0.1054,-0.1099,-0.1252,-0.1307,-0.14,-0.1469,-0.1495,-0.1565,-0.1565,-0.1584,-0.159,-0.1537,-0.1504,-0.1466,-0.1579,-0.1571,-0.1367,-0.1364,-0.134,-0.1336,-0.1332,-0.133,-0.1327,0,-0.0694,-0.0712,-0.0853,-0.0903,-0.0961,-0.106,-0.1135,-0.1274,-0.1333,-0.1453,-0.1469,-0.1512,-0.1536,-0.1448,-0.1477,-0.1438,-0.1418,-0.14,-0.138,-0.1353,-0.1341,-0.1344,-0.1346,-0.1322,-0.1321,-0.132,-0.1319,0,-0.0583,-0.0639,-0.0685,-0.0793,-0.0883,-0.0997,-0.1109,-0.1146,-0.1296,-0.1389,-0.1396,-0.139,-0.1384,-0.1366,-0.1345,-0.1318,-0.1412,-0.1364,-0.1371,-0.1352,-0.1331,-0.1323,-0.1329,-0.1307,-0.1309,-0.131,-0.1311,0,-0.0496,-0.0485,-0.0565,-0.0663,-0.0787,-0.09,-0.0984,-0.1065,-0.1144,-0.1281,-0.1271,-0.1309,-0.1367,-0.1303,-0.1283,-0.1245,-0.1221,-0.1184,-0.12,-0.1214,-0.1166,-0.1121,-0.1013,0,0,0,0,0,-0.0416,-0.0389,-0.0443,-0.0562,-0.0703,-0.0788,-0.0953,-0.1043,-0.1182,-0.1152,-0.1213,-0.1198,-0.1164,-0.1182,-0.1112,-0.1216,-0.1224,-0.1129,-0.1191,-0.1242,-0.1255,-0.1209,0,0,0,0,0,0,-0.0348,-0.0357,-0.0378,-0.0477,-0.0553,-0.07,-0.0809,-0.0914,-0.0915,-0.1037,-0.102,-0.1102,-0.1081,-0.1163,-0.1071,-0.1077,-0.1089,-0.116,-0.1156,-0.1234,-0.1246,-0.1257,-0.1215,0,0,0,0,0]},{"header":{"parameterUnit":"m.s-1","parameterCategory":2,"la1":30.2991,"la2":30.254,"lo1":-89.0895,"lo2":-89.0444,"dy":0.0017,"dx":0.0017,"nx":28,"ny":28,"refTime":"2025-03-24T09:00:00:Z","depth":"4","parameterNumber":3,"parameterNumberName":"V-component_of_CURRENTS"},"data":[0,0,0,0,0,0,0,0,0,0,0,0,0,0,0,0,0,0,0,0,0,0,0,0,0,0,0,0,0,0,0,0,0,0,0,0,0,0,0,0,0,0,0,0,0,0,0,0,0,0,0,0,0,0,0,0,0,0,-0.0059,-0.0059,0,-0.0054,-0.0054,-0.0054,-0.0026,-0.0025,-0.0025,-0.0024,0.0032,0.0032,0.0033,0,0,0,0,0,0,0,0,0,0,0,0,0,0.001,0.0008,-0.0059,-0.0059,-0.0059,-0.0054,-0.0054,-0.0054,-0.0026,-0.0025,-0.0025,-0.0024,0.0031,0.0032,0.0034,0,0,0,0,0,0,0,0,0,0,0,0,0,-0.0005,0.0007,-0.0059,-0.0046,-0.0044,-0.0054,-0.0054,-0.0054,-0.0026,-0.0025,-0.0024,-0.0024,0.0031,0.0032,0.0034,0.0025,0,0,0.0038,0.0039,0,0,0,0,0,0,0,0,-0.0005,-0.0008,-0.0048,-0.0047,-0.0045,-0.0041,-0.0009,-0.0025,-0.0026,-0.0032,-0.0024,-0.0023,0.0011,0.0014,0.0014,0.0028,0.003,0.0038,0.0039,0.004,0.004,0,0,0,0,0,0,0,-0.0004,-0.0008,-0.0056,-0.0048,-0.0046,-0.0021,-0.0022,-0.0012,-0.0014,-0.0031,-0.003,-0.0031,0.0012,0.0012,0.0015,0.0031,0.0038,0.0039,0.004,0.0041,0.0052,0.0051,0,0,0,0,0,0,-0.0011,-0.0007,-0.0056,-0.0056,-0.0023,-0.0023,-0.0025,-0.0042,-0.0015,-0.0011,-0.0032,-0.003,0.0009,0.0014,0.0018,0.0015,0.004,0.0041,0.0042,0.0053,0.0052,0.0051,0,0,0,0,0,0,-0.0009,-0.0016,-0.0057,-0.0031,-0.0034,-0.0026,-0.0045,-0.0042,-0.0037,-0.0016,-0.001,-0.0028,0.001,0.0016,0.0026,0.0018,0.0042,0.0043,0.0053,0.0052,0.0052,0.0008,0,0,0,0,0,0,-0.0008,-0.0016,-0.0028,-0.0032,-0.0036,-0.007,-0.0046,-0.0043,-0.004,-0.0037,-0.0011,-0.0006,0.0011,0.0024,0.0028,0.002,0.0044,0.0054,0.0053,0.0052,0.001,0.0005,0.0002,0,0,0,0,0,-0.0006,-0.0035,-0.003,-0.0035,-0.0055,-0.0071,-0.0071,-0.006,-0.0041,-0.0049,-0.0026,-0.0006,0.002,0.0024,0.0029,0.0022,0.0054,0.0053,0.0052,0.0012,0.0006,0.0002,0,0,0,0,0,0,-0.0013,-0.0035,-0.0029,-0.0063,-0.0068,-0.0067,-0.0074,-0.0062,-0.0051,-0.0042,-0.0013,-0.0007,-0.0004,0.0015,0.0019,0.0022,0.004,0.004,0.0008,0.0003,-0.0001,0.0009,0.0045,0,0,0,0,0,-0.0021,-0.0047,-0.0056,-0.0082,-0.0086,-0.0077,-0.0079,-0.0072,-0.0064,-0.0058,-0.004,-0.0019,-0.0008,0.0003,0.0011,0.0016,0.0058,0.0014,0.001,0.0007,0.0017,0.008,0.0083,0.0047,0.0047,0.0047,0,0,-0.0031,-0.0045,-0.006,-0.0084,-0.0084,-0.01,-0.0076,-0.0086,-0.0088,-0.0054,-0.0051,-0.0037,-0.0012,-0.0012,-0.0008,0.0006,0.0034,0.0005,0.0002,0.0014,0.0079,0.0083,0.0087,0.0046,0.0046,0.0047,0,0,-0.0063,-0.0076,-0.0104,-0.0112,-0.012,-0.0117,-0.012,-0.012,-0.0109,-0.011,-0.0083,-0.0068,-0.0058,-0.0036,-0.0024,-0.0043,0.0006,-0.0047,-0.0052,0.0008,0.0013,0.0017,0.0059,0.0067,-0.0042,-0.0042,-0.0042,0,-0.0068,-0.0108,-0.0113,-0.0137,-0.0142,-0.0126,-0.0146,-0.0139,-0.0133,-0.0117,-0.0116,-0.008,-0.0067,-0.0041,-0.0054,-0.0051,-0.0011,-0.0037,0.0005,0.001,0.0015,0.0058,0.0068,-0.0045,-0.0044,-0.0044,-0.0044,0,-0.0119,-0.0144,-0.0161,-0.0185,-0.0192,-0.0209,-0.02,-0.0195,-0.0179,-0.0163,-0.0139,-0.0118,-0.0088,-0.0092,-0.0081,-0.0043,-0.0027,-0.0012,0.002,0.0017,0.0061,0.0072,-0.0048,-0.0047,-0.0046,-0.0046,0,0,-0.0144,-0.0187,-0.0192,-0.0203,-0.0216,-0.0227,-0.0226,-0.0216,-0.0197,-0.0187,-0.0155,-0.0146,-0.0118,-0.0102,-0.008,-0.0035,0.0017,-0.0012,-0.0008,0.0035,0.0146,0.0109,0.0118,0.0047,0.0048,0.005,0.0157,0,-0.0175,-0.0231,-0.0238,-0.0271,-0.0294,-0.0274,-0.0272,-0.0255,-0.0229,-0.0197,-0.0153,-0.0127,-0.0125,-0.0107,-0.0062,0.0,0.0048,-0.0013,0.014,0.0144,0.0117,0.013,0.0056,0.0166,0.0168,0.017,0.0172,0,-0.0217,-0.0248,-0.0295,-0.0306,-0.0311,-0.0323,-0.0299,-0.0294,-0.0241,-0.0214,-0.0168,-0.0129,-0.0071,-0.0065,0.0054,0.0018,0.0078,0.0126,0.0132,0.0126,0.0129,0.0175,0.0192,0.0191,0.0189,0.0188,0.0187,0,-0.0237,-0.0279,-0.0316,-0.0327,-0.0343,-0.0342,-0.0338,-0.0301,-0.0283,-0.0217,-0.0191,-0.0109,-0.0067,0.0025,0.01,0.0093,0.0235,0.0245,0.0271,0.0269,0.0291,0.0286,0.0343,0.0343,0.0343,0.0342,0.0342,0,-0.0268,-0.0293,-0.0331,-0.0352,-0.0372,-0.0368,-0.0364,-0.034,-0.0295,-0.027,-0.0201,-0.0156,-0.004,0.0044,0.012,0.022,0.0256,0.0279,0.03,0.0265,0.0256,0.0298,0.0291,0.0346,0.0346,0.0345,0.0344,0,-0.0284,-0.0314,-0.0354,-0.0382,-0.0389,-0.0403,-0.0397,-0.0386,-0.0341,-0.0302,-0.0281,-0.0175,-0.0064,0.0039,0.0192,0.0237,0.0341,0.0367,0.0309,0.0324,0.0334,0.0323,0.0429,0.0429,0.0429,0.0429,0.0429,0,-0.0297,-0.0329,-0.0381,-0.0403,-0.0419,-0.0436,-0.0443,-0.0414,-0.0401,-0.0316,-0.0297,-0.0181,-0.0108,0.0086,0.0189,0.034,0.0349,0.0402,0.0379,0.0335,0.0346,0.0336,0.0326,0.0428,0.0428,0.0428,0.0428,0,-0.0314,-0.034,-0.0374,-0.0427,-0.0453,-0.0476,-0.0484,-0.0477,-0.0434,-0.0395,-0.0289,-0.018,-0.0056,0.0088,0.0193,0.0298,0.037,0.04,0.0402,0.0381,0.0335,0.0344,0.0335,0.0427,0.0427,0.0427,0.0427,0,-0.0315,-0.0344,-0.0394,-0.0434,-0.0477,-0.0503,-0.0507,-0.0479,-0.0455,-0.0365,-0.0329,-0.0182,-0.0088,0.0066,0.0165,0.0259,0.0288,0.0315,0.0322,0.0324,0.0246,0.017,0.024,0,0,0,0,0,-0.0308,-0.034,-0.039,-0.0439,-0.0488,-0.051,-0.0525,-0.052,-0.0485,-0.0414,-0.0368,-0.025,-0.0069,0.002,0.011,0.0144,0.0283,0.025,0.0312,0.0423,0.0424,0.0345,0,0,0,0,0,0,-0.03,-0.0347,-0.0384,-0.044,-0.0474,-0.0519,-0.0535,-0.0516,-0.047,-0.0413,-0.0313,-0.0237,-0.0064,-0.0118,0.0112,0.0142,0.0191,0.0342,0.0343,0.0422,0.0423,0.0424,0.0343,0,0,0,0,0]}]]